Time,TemperatureF,DewpointF,PressureIn,WindDirection,WindDirectionDegrees,WindSpeedMPH,WindSpeedGustMPH,Humidity,HourlyPrecipIn,Conditions,Clouds,dailyrainin,SoftwareType,DateUTC
2013-03-20 00:04:00,54.3,44.8,30.19,SW,234,0.0,0.0,70,0.00,,,0.00,WUHU216WMR968SP,2013-03-20 07:04:00,
2013-03-20 00:09:00,54.1,44.6,30.19,NNE,23,2.7,4.0,70,0.00,,,0.00,WUHU216WMR968SP,2013-03-20 07:09:00,
2013-03-20 00:14:00,54.0,44.6,30.19,NNE,22,0.0,4.0,70,0.00,,,0.00,WUHU216WMR968SP,2013-03-20 07:14:00,
2013-03-20 00:19:00,53.8,44.7,30.19,NNE,22,0.0,4.0,71,0.00,,,0.00,WUHU216WMR968SP,2013-03-20 07:19:00,
2013-03-20 00:24:00,53.8,45.1,30.19,NNE,22,0.0,3.1,72,0.00,,,0.00,WUHU216WMR968SP,2013-03-20 07:24:00,
2013-03-20 00:29:00,54.1,45.7,30.19,North,357,0.0,0.0,73,0.00,,,0.00,WUHU216WMR968SP,2013-03-20 07:29:00,
2013-03-20 00:34:00,54.3,45.9,30.19,NNE,14,0.0,3.6,73,0.00,,,0.00,WUHU216WMR968SP,2013-03-20 07:34:00,
2013-03-20 00:39:00,54.3,45.9,30.16,NNE,14,0.0,3.6,73,0.00,,,0.00,WUHU216WMR968SP,2013-03-20 07:39:00,
2013-03-20 00:44:00,54.5,46.5,30.16,WSW,256,0.0,3.1,74,0.00,,,0.00,WUHU216WMR968SP,2013-03-20 07:44:00,
2013-03-20 00:49:00,54.5,46.1,30.16,NE,52,0.0,3.1,73,0.00,,,0.00,WUHU216WMR968SP,2013-03-20 07:49:00,
2013-03-20 00:54:00,54.5,46.1,30.16,NNE,16,0.0,3.1,73,0.00,,,0.00,WUHU216WMR968SP,2013-03-20 07:54:00,
2013-03-20 00:59:00,54.5,46.1,30.16,NNE,22,0.0,5.4,73,0.00,,,0.00,WUHU216WMR968SP,2013-03-20 07:59:00,
2013-03-20 01:04:00,54.7,46.3,30.16,NNW,329,0.0,5.4,73,0.00,,,0.00,WUHU216WMR968SP,2013-03-20 08:04:00,
2013-03-20 01:09:00,54.7,46.3,30.16,NNE,25,0.0,4.0,73,0.00,,,0.00,WUHU216WMR968SP,2013-03-20 08:09:00,
2013-03-20 01:14:00,54.7,46.0,30.16,NNE,22,0.0,5.4,72,0.00,,,0.00,WUHU216WMR968SP,2013-03-20 08:14:00,
2013-03-20 01:19:00,54.5,45.8,30.16,NE,44,0.0,5.4,72,0.00,,,0.00,WUHU216WMR968SP,2013-03-20 08:19:00,
2013-03-20 01:24:00,54.7,46.0,30.16,NE,43,0.0,4.0,72,0.00,,,0.00,WUHU216WMR968SP,2013-03-20 08:24:00,
2013-03-20 01:29:00,54.7,46.0,30.16,ENE,67,0.0,0.0,72,0.00,,,0.00,WUHU216WMR968SP,2013-03-20 08:29:00,
2013-03-20 01:34:00,54.5,45.4,30.16,ENE,67,0.0,0.0,71,0.00,,,0.00,WUHU216WMR968SP,2013-03-20 08:34:00,
2013-03-20 01:39:00,54.5,45.4,30.16,ENE,67,0.0,0.0,71,0.00,,,0.00,WUHU216WMR968SP,2013-03-20 08:39:00,
2013-03-20 01:44:00,54.5,45.4,30.16,ENE,68,0.0,0.0,71,0.00,,,0.00,WUHU216WMR968SP,2013-03-20 08:44:00,
2013-03-20 01:49:00,54.3,45.2,30.16,NE,47,0.0,2.7,71,0.00,,,0.00,WUHU216WMR968SP,2013-03-20 08:49:00,
2013-03-20 01:54:00,54.1,45.0,30.13,NE,47,0.0,2.7,71,0.00,,,0.00,WUHU216WMR968SP,2013-03-20 08:54:00,
2013-03-20 01:59:00,53.8,45.1,30.13,NW,320,0.0,2.7,72,0.00,,,0.00,WUHU216WMR968SP,2013-03-20 08:59:00,
2013-03-20 02:04:00,53.8,45.4,30.13,NW,312,0.0,3.6,73,0.00,,,0.00,WUHU216WMR968SP,2013-03-20 09:04:00,
2013-03-20 02:09:00,53.8,45.4,30.16,NW,311,0.0,3.6,73,0.00,,,0.00,WUHU216WMR968SP,2013-03-20 09:09:00,
2013-03-20 02:14:00,54.0,45.6,30.16,NW,311,0.0,0.0,73,0.00,,,0.00,WUHU216WMR968SP,2013-03-20 09:14:00,
2013-03-20 02:19:00,54.1,45.7,30.16,NW,311,0.0,0.0,73,0.00,,,0.00,WUHU216WMR968SP,2013-03-20 09:19:00,
2013-03-20 02:24:00,54.3,45.9,30.13,NW,312,0.0,0.0,73,0.00,,,0.00,WUHU216WMR968SP,2013-03-20 09:24:00,
2013-03-20 02:29:00,54.1,45.4,30.13,NW,311,0.0,0.0,72,0.00,,,0.00,WUHU216WMR968SP,2013-03-20 09:29:00,
2013-03-20 02:34:00,54.0,45.3,30.13,NW,312,0.0,0.0,72,0.00,,,0.00,WUHU216WMR968SP,2013-03-20 09:34:00,
2013-03-20 02:39:00,54.0,45.3,30.16,NW,312,0.0,0.0,72,0.00,,,0.00,WUHU216WMR968SP,2013-03-20 09:39:00,
2013-03-20 02:44:00,53.8,45.1,30.16,NW,312,0.0,0.0,72,0.00,,,0.00,WUHU216WMR968SP,2013-03-20 09:44:00,
2013-03-20 02:49:00,53.4,44.7,30.16,NW,311,0.0,0.0,72,0.00,,,0.00,WUHU216WMR968SP,2013-03-20 09:49:00,
2013-03-20 02:54:00,53.4,44.7,30.13,NW,311,0.0,0.0,72,0.00,,,0.00,WUHU216WMR968SP,2013-03-20 09:54:00,
2013-03-20 02:59:00,53.4,45.1,30.13,NW,312,0.0,0.0,73,0.00,,,0.00,WUHU216WMR968SP,2013-03-20 09:59:00,
2013-03-20 03:04:00,53.4,45.1,30.13,NW,311,0.0,0.0,73,0.00,,,0.00,WUHU216WMR968SP,2013-03-20 10:04:00,
2013-03-20 03:09:00,53.4,44.7,30.16,NE,39,0.0,0.0,72,0.00,,,0.00,WUHU216WMR968SP,2013-03-20 10:09:00,
2013-03-20 03:14:00,53.2,44.9,30.16,NE,39,0.0,0.0,73,0.00,,,0.00,WUHU216WMR968SP,2013-03-20 10:14:00,
2013-03-20 03:19:00,53.1,45.1,30.16,NE,39,0.0,0.0,74,0.00,,,0.00,WUHU216WMR968SP,2013-03-20 10:19:00,
2013-03-20 03:24:00,53.1,45.1,30.16,NE,39,0.0,0.0,74,0.00,,,0.00,WUHU216WMR968SP,2013-03-20 10:24:00,
2013-03-20 03:29:00,53.1,45.5,30.16,NE,46,0.0,0.0,75,0.00,,,0.00,WUHU216WMR968SP,2013-03-20 10:29:00,
2013-03-20 03:34:00,53.2,45.9,30.16,NNE,16,0.0,0.0,76,0.00,,,0.00,WUHU216WMR968SP,2013-03-20 10:34:00,
2013-03-20 03:39:00,53.2,45.9,30.16,NNE,16,0.0,0.0,76,0.00,,,0.00,WUHU216WMR968SP,2013-03-20 10:39:00,
2013-03-20 03:44:00,53.2,45.9,30.16,NNE,16,0.0,0.0,76,0.00,,,0.00,WUHU216WMR968SP,2013-03-20 10:44:00,
2013-03-20 03:49:00,53.8,46.5,30.16,NNE,16,0.0,0.0,76,0.00,,,0.00,WUHU216WMR968SP,2013-03-20 10:49:00,
2013-03-20 03:54:00,54.0,46.7,30.13,NNE,16,0.0,0.0,76,0.00,,,0.00,WUHU216WMR968SP,2013-03-20 10:54:00,
2013-03-20 03:59:00,54.3,47.0,30.13,NNE,16,0.0,0.0,76,0.00,,,0.00,WUHU216WMR968SP,2013-03-20 10:59:00,
2013-03-20 04:04:00,54.5,46.8,30.13,NNE,16,0.0,0.0,75,0.00,,,0.00,WUHU216WMR968SP,2013-03-20 11:04:00,
2013-03-20 04:09:00,54.5,46.5,30.13,NNE,16,0.0,0.0,74,0.00,,,0.00,WUHU216WMR968SP,2013-03-20 11:09:00,
2013-03-20 04:14:00,54.5,46.1,30.13,NNE,16,0.0,0.0,73,0.00,,,0.00,WUHU216WMR968SP,2013-03-20 11:14:00,
2013-03-20 04:19:00,54.3,45.6,30.13,NNE,16,0.0,0.0,72,0.00,,,0.00,WUHU216WMR968SP,2013-03-20 11:19:00,
2013-03-20 04:24:00,54.5,45.8,30.13,NNE,16,0.0,0.0,72,0.00,,,0.00,WUHU216WMR968SP,2013-03-20 11:24:00,
2013-03-20 04:30:00,54.3,45.2,30.13,NNE,16,0.0,0.0,71,0.00,,,0.00,WUHU216WMR968SP,2013-03-20 11:30:00,
2013-03-20 04:35:00,54.0,44.9,30.13,NNE,16,0.0,0.0,71,0.00,,,0.00,WUHU216WMR968SP,2013-03-20 11:35:00,
2013-03-20 04:40:00,53.8,44.7,30.13,NNE,16,0.0,0.0,71,0.00,,,0.00,WUHU216WMR968SP,2013-03-20 11:40:00,
2013-03-20 04:45:00,53.6,44.5,30.13,NNE,16,0.0,0.0,71,0.00,,,0.00,WUHU216WMR968SP,2013-03-20 11:45:00,
2013-03-20 04:50:00,53.4,44.7,30.13,NNE,16,0.0,0.0,72,0.00,,,0.00,WUHU216WMR968SP,2013-03-20 11:50:00,
2013-03-20 04:55:00,53.2,44.5,30.13,NNE,16,0.0,0.0,72,0.00,,,0.00,WUHU216WMR968SP,2013-03-20 11:55:00,
2013-03-20 05:00:00,53.1,44.1,30.13,NNE,16,0.0,0.0,71,0.00,,,0.00,WUHU216WMR968SP,2013-03-20 12:00:00,
2013-03-20 05:05:00,52.9,43.9,30.13,NNE,16,0.0,0.0,71,0.00,,,0.00,WUHU216WMR968SP,2013-03-20 12:05:00,
2013-03-20 05:10:00,52.5,43.5,30.13,NNE,16,0.0,0.0,71,0.00,,,0.00,WUHU216WMR968SP,2013-03-20 12:10:00,
2013-03-20 05:15:00,52.0,43.0,30.13,NNE,16,0.0,0.0,71,0.00,,,0.00,WUHU216WMR968SP,2013-03-20 12:15:00,
2013-03-20 05:20:00,51.8,43.2,30.13,NNE,16,0.0,0.0,72,0.00,,,0.00,WUHU216WMR968SP,2013-03-20 12:20:00,
2013-03-20 05:25:00,52.2,43.9,30.13,NNE,16,0.0,0.0,73,0.00,,,0.00,WUHU216WMR968SP,2013-03-20 12:25:00,
2013-03-20 05:30:00,52.5,44.2,30.13,NNE,16,0.0,0.0,73,0.00,,,0.00,WUHU216WMR968SP,2013-03-20 12:30:00,
2013-03-20 05:35:00,52.7,44.4,30.13,NNE,16,0.0,0.0,73,0.00,,,0.00,WUHU216WMR968SP,2013-03-20 12:35:00,
2013-03-20 05:40:00,52.2,43.9,30.13,NNE,16,0.0,0.0,73,0.00,,,0.00,WUHU216WMR968SP,2013-03-20 12:40:00,
2013-03-20 05:45:00,52.0,43.7,30.13,NNE,16,0.0,0.0,73,0.00,,,0.00,WUHU216WMR968SP,2013-03-20 12:45:00,
2013-03-20 05:50:00,52.3,44.3,30.13,NNE,16,0.0,0.0,74,0.00,,,0.00,WUHU216WMR968SP,2013-03-20 12:50:00,
2013-03-20 05:55:00,52.7,45.1,30.13,NNE,25,0.0,0.0,75,0.00,,,0.00,WUHU216WMR968SP,2013-03-20 12:55:00,
2013-03-20 06:00:00,52.9,45.3,30.13,East,90,0.0,3.1,75,0.00,,,0.00,WUHU216WMR968SP,2013-03-20 13:00:00,
2013-03-20 06:05:00,53.1,45.5,30.13,East,87,0.0,3.1,75,0.00,,,0.00,WUHU216WMR968SP,2013-03-20 13:05:00,
2013-03-20 06:10:00,53.1,45.8,30.13,East,86,0.0,3.1,76,0.00,,,0.00,WUHU216WMR968SP,2013-03-20 13:10:00,
2013-03-20 06:15:00,53.1,45.8,30.13,East,86,0.0,2.2,76,0.00,,,0.00,WUHU216WMR968SP,2013-03-20 13:15:00,
2013-03-20 06:20:00,53.2,45.9,30.13,East,86,0.0,2.2,76,0.00,,,0.00,WUHU216WMR968SP,2013-03-20 13:20:00,
2013-03-20 06:25:00,53.2,45.9,30.13,ENE,71,0.0,0.0,76,0.00,,,0.00,WUHU216WMR968SP,2013-03-20 13:25:00,
2013-03-20 06:30:00,53.2,45.9,30.13,ENE,71,0.0,0.0,76,0.00,,,0.00,WUHU216WMR968SP,2013-03-20 13:30:00,
2013-03-20 06:35:00,53.2,45.9,30.13,ENE,71,0.0,0.0,76,0.00,,,0.00,WUHU216WMR968SP,2013-03-20 13:35:00,
2013-03-20 06:40:00,53.1,45.8,30.13,ENE,71,0.0,0.0,76,0.00,,,0.00,WUHU216WMR968SP,2013-03-20 13:40:00,
2013-03-20 06:45:00,53.1,45.8,30.13,ENE,71,0.0,0.0,76,0.00,,,0.00,WUHU216WMR968SP,2013-03-20 13:45:00,
2013-03-20 06:50:00,52.9,45.6,30.13,ENE,71,0.0,0.0,76,0.00,,,0.00,WUHU216WMR968SP,2013-03-20 13:50:00,
2013-03-20 06:55:00,53.1,45.8,30.13,ENE,71,0.0,0.0,76,0.00,,,0.00,WUHU216WMR968SP,2013-03-20 13:55:00,
2013-03-20 07:00:00,53.4,46.1,30.13,ENE,71,0.0,0.0,76,0.00,,,0.00,WUHU216WMR968SP,2013-03-20 14:00:00,
2013-03-20 07:05:00,53.2,45.9,30.16,ENE,71,0.0,0.0,76,0.00,,,0.00,WUHU216WMR968SP,2013-03-20 14:05:00,
2013-03-20 07:10:00,53.1,45.8,30.16,ENE,71,0.0,0.0,76,0.00,,,0.00,WUHU216WMR968SP,2013-03-20 14:10:00,
2013-03-20 07:15:00,53.1,45.8,30.16,ENE,71,0.0,0.0,76,0.00,,,0.00,WUHU216WMR968SP,2013-03-20 14:15:00,
2013-03-20 07:20:00,53.1,45.8,30.16,ENE,71,0.0,0.0,76,0.00,,,0.00,WUHU216WMR968SP,2013-03-20 14:20:00,
2013-03-20 07:25:00,53.1,45.8,30.16,ENE,71,0.0,0.0,76,0.00,,,0.00,WUHU216WMR968SP,2013-03-20 14:25:00,
2013-03-20 07:30:00,53.2,45.9,30.16,ENE,71,0.0,0.0,76,0.00,,,0.00,WUHU216WMR968SP,2013-03-20 14:30:00,
2013-03-20 07:35:00,53.4,46.1,30.16,ENE,71,0.0,0.0,76,0.00,,,0.00,WUHU216WMR968SP,2013-03-20 14:35:00,
2013-03-20 07:40:00,53.6,46.0,30.16,ENE,71,0.0,0.0,75,0.00,,,0.00,WUHU216WMR968SP,2013-03-20 14:40:00,
2013-03-20 07:45:00,53.8,46.5,30.16,ENE,71,0.0,0.0,76,0.00,,,0.00,WUHU216WMR968SP,2013-03-20 14:45:00,
2013-03-20 07:50:00,54.1,46.8,30.13,East,82,0.0,0.0,76,0.00,,,0.00,WUHU216WMR968SP,2013-03-20 14:50:00,
2013-03-20 07:55:00,54.5,47.2,30.13,East,82,0.0,0.0,76,0.00,,,0.00,WUHU216WMR968SP,2013-03-20 14:55:00,
2013-03-20 08:00:00,54.5,47.2,30.13,East,82,0.0,0.0,76,0.00,,,0.00,WUHU216WMR968SP,2013-03-20 15:00:00,
2013-03-20 08:05:00,54.9,47.6,30.13,East,82,0.0,0.0,76,0.00,,,0.00,WUHU216WMR968SP,2013-03-20 15:05:00,
2013-03-20 08:10:00,55.0,47.7,30.13,East,82,0.0,0.0,76,0.00,,,0.00,WUHU216WMR968SP,2013-03-20 15:10:00,
2013-03-20 08:15:00,55.2,47.8,30.13,East,82,0.0,0.0,76,0.00,,,0.00,WUHU216WMR968SP,2013-03-20 15:15:00,
2013-03-20 08:20:00,55.6,47.9,30.13,East,82,0.0,0.0,75,0.00,,,0.00,WUHU216WMR968SP,2013-03-20 15:20:00,
2013-03-20 08:25:00,56.1,48.4,30.16,East,82,0.0,0.0,75,0.00,,,0.00,WUHU216WMR968SP,2013-03-20 15:25:00,
2013-03-20 08:30:00,56.3,48.6,30.16,East,82,0.0,0.0,75,0.00,,,0.00,WUHU216WMR968SP,2013-03-20 15:30:00,
2013-03-20 08:35:00,56.5,48.8,30.16,East,82,0.0,0.0,75,0.00,,,0.00,WUHU216WMR968SP,2013-03-20 15:35:00,
2013-03-20 08:40:00,56.5,48.8,30.16,East,82,0.0,0.0,75,0.00,,,0.00,WUHU216WMR968SP,2013-03-20 15:40:00,
2013-03-20 08:45:00,56.8,48.7,30.16,East,82,0.0,0.0,74,0.00,,,0.00,WUHU216WMR968SP,2013-03-20 15:45:00,
2013-03-20 08:50:00,57.0,48.9,30.10,East,82,0.0,0.0,74,0.00,,,0.00,WUHU216WMR968SP,2013-03-20 15:50:00,
2013-03-20 08:55:00,57.4,48.9,30.10,SW,220,0.0,3.1,73,0.00,,,0.00,WUHU216WMR968SP,2013-03-20 15:55:00,
2013-03-20 09:00:00,57.6,49.1,30.10,SSW,202,0.0,3.1,73,0.00,,,0.00,WUHU216WMR968SP,2013-03-20 16:00:00,
2013-03-20 09:05:00,57.9,49.0,30.10,South,181,2.7,3.6,72,0.00,,,0.00,WUHU216WMR968SP,2013-03-20 16:05:00,
2013-03-20 09:10:00,58.1,48.9,30.10,South,187,0.0,4.0,71,0.00,,,0.00,WUHU216WMR968SP,2013-03-20 16:10:00,
2013-03-20 09:15:00,58.3,48.7,30.10,SSW,193,2.2,4.0,70,0.00,,,0.00,WUHU216WMR968SP,2013-03-20 16:15:00,
2013-03-20 09:20:00,58.5,48.5,30.10,SSW,209,2.7,3.6,69,0.00,,,0.00,WUHU216WMR968SP,2013-03-20 16:20:00,
2013-03-20 09:25:00,58.5,48.5,30.10,SW,222,0.0,3.6,69,0.00,,,0.00,WUHU216WMR968SP,2013-03-20 16:25:00,
2013-03-20 09:30:00,58.6,48.2,30.10,SSW,196,0.0,3.1,68,0.00,,,0.00,WUHU216WMR968SP,2013-03-20 16:30:00,
2013-03-20 09:35:00,58.6,48.2,30.10,SW,221,0.0,0.0,68,0.00,,,0.00,WUHU216WMR968SP,2013-03-20 16:35:00,
2013-03-20 09:40:00,58.6,47.8,30.10,SW,221,0.0,0.0,67,0.00,,,0.00,WUHU216WMR968SP,2013-03-20 16:40:00,
2013-03-20 09:45:00,58.6,47.8,30.10,West,274,0.0,2.2,67,0.00,,,0.00,WUHU216WMR968SP,2013-03-20 16:45:00,
2013-03-20 09:50:00,58.8,48.0,30.10,West,260,0.0,2.2,67,0.00,,,0.00,WUHU216WMR968SP,2013-03-20 16:50:00,
2013-03-20 09:55:00,59.0,47.8,30.10,WSW,237,3.1,4.0,66,0.00,,,0.00,WUHU216WMR968SP,2013-03-20 16:55:00,
2013-03-20 10:00:00,59.2,48.0,30.10,SSW,198,0.0,4.0,66,0.00,,,0.00,WUHU216WMR968SP,2013-03-20 17:00:00,
2013-03-20 10:05:00,59.4,48.2,30.10,SW,233,3.1,3.6,66,0.00,,,0.00,WUHU216WMR968SP,2013-03-20 17:05:00,
2013-03-20 10:10:00,59.7,48.5,30.07,SW,225,2.2,3.6,66,0.00,,,0.00,WUHU216WMR968SP,2013-03-20 17:10:00,
2013-03-20 10:15:00,60.1,48.8,30.07,SW,226,0.0,3.6,66,0.00,,,0.00,WUHU216WMR968SP,2013-03-20 17:15:00,
2013-03-20 10:20:00,60.4,48.7,30.10,SW,226,0.0,0.0,65,0.00,,,0.00,WUHU216WMR968SP,2013-03-20 17:20:00,
2013-03-20 10:25:00,60.6,48.9,30.10,SW,236,2.7,3.6,65,0.00,,,0.00,WUHU216WMR968SP,2013-03-20 17:25:00,
2013-03-20 10:30:00,60.6,48.5,30.10,WSW,239,2.2,3.6,64,0.00,,,0.00,WUHU216WMR968SP,2013-03-20 17:30:00,
2013-03-20 10:35:00,60.8,48.7,30.13,North,357,0.0,3.6,64,0.00,,,0.00,WUHU216WMR968SP,2013-03-20 17:35:00,
2013-03-20 10:40:00,61.0,48.5,30.13,West,260,0.0,3.6,63,0.00,,,0.00,WUHU216WMR968SP,2013-03-20 17:40:00,
2013-03-20 10:45:00,61.2,49.1,30.13,SSW,210,3.1,4.9,64,0.00,,,0.00,WUHU216WMR968SP,2013-03-20 17:45:00,
2013-03-20 10:50:00,61.5,48.1,30.13,WSW,248,2.2,4.9,61,0.00,,,0.00,WUHU216WMR968SP,2013-03-20 17:50:00,
2013-03-20 10:55:00,61.7,48.3,30.13,SW,222,2.7,4.9,61,0.00,,,0.00,WUHU216WMR968SP,2013-03-20 17:55:00,
2013-03-20 11:00:00,62.1,49.1,30.13,SSW,192,3.1,5.4,62,0.00,,,0.00,WUHU216WMR968SP,2013-03-20 18:00:00,
2013-03-20 11:05:00,62.6,49.1,30.13,ESE,122,3.6,5.4,61,0.00,,,0.00,WUHU216WMR968SP,2013-03-20 18:05:00,
2013-03-20 11:10:00,63.1,49.6,30.13,SSE,164,2.2,4.0,61,0.00,,,0.00,WUHU216WMR968SP,2013-03-20 18:10:00,
2013-03-20 11:15:00,63.7,49.7,30.13,SW,231,4.0,4.9,60,0.00,,,0.00,WUHU216WMR968SP,2013-03-20 18:15:00,
2013-03-20 11:20:00,63.9,49.4,30.13,SW,231,4.0,5.4,59,0.00,,,0.00,WUHU216WMR968SP,2013-03-20 18:20:00,
2013-03-20 11:25:00,64.0,49.1,30.13,SW,226,0.0,5.4,58,0.00,,,0.00,WUHU216WMR968SP,2013-03-20 18:25:00,
2013-03-20 11:30:00,64.2,49.2,30.13,SW,231,4.5,6.3,58,0.00,,,0.00,WUHU216WMR968SP,2013-03-20 18:30:00,
2013-03-20 11:35:00,64.2,49.2,30.13,West,260,2.7,6.3,58,0.00,,,0.00,WUHU216WMR968SP,2013-03-20 18:35:00,
2013-03-20 11:40:00,64.2,48.8,30.13,South,184,2.2,4.0,57,0.00,,,0.00,WUHU216WMR968SP,2013-03-20 18:40:00,
2013-03-20 11:45:00,64.6,49.1,30.13,ESE,112,3.1,4.9,57,0.00,,,0.00,WUHU216WMR968SP,2013-03-20 18:45:00,
2013-03-20 11:50:00,65.3,49.8,30.13,WSW,250,0.0,4.9,57,0.00,,,0.00,WUHU216WMR968SP,2013-03-20 18:50:00,
2013-03-20 11:55:00,65.8,49.8,30.13,SW,229,5.4,6.7,56,0.00,,,0.00,WUHU216WMR968SP,2013-03-20 18:55:00,
2013-03-20 12:00:00,66.0,50.0,30.13,WNW,284,4.5,6.7,56,0.00,,,0.00,WUHU216WMR968SP,2013-03-20 19:00:00,
2013-03-20 12:05:00,65.7,49.2,30.13,WSW,240,2.7,6.3,55,0.00,,,0.00,WUHU216WMR968SP,2013-03-20 19:05:00,
2013-03-20 12:10:00,65.7,49.2,30.13,WSW,248,2.7,4.9,55,0.00,,,0.00,WUHU216WMR968SP,2013-03-20 19:10:00,
2013-03-20 12:15:00,65.8,49.3,30.13,WNW,298,2.7,7.6,55,0.00,,,0.00,WUHU216WMR968SP,2013-03-20 19:15:00,
2013-03-20 12:20:00,66.2,49.2,30.13,WSW,247,2.2,7.6,54,0.00,,,0.00,WUHU216WMR968SP,2013-03-20 19:20:00,
2013-03-20 12:25:00,66.4,49.3,30.13,WSW,247,2.7,5.8,54,0.00,,,0.00,WUHU216WMR968SP,2013-03-20 19:25:00,
2013-03-20 12:30:00,66.2,49.2,30.13,WSW,252,3.6,5.8,54,0.00,,,0.00,WUHU216WMR968SP,2013-03-20 19:30:00,
2013-03-20 12:35:00,66.0,49.0,30.13,West,279,2.7,5.8,54,0.00,,,0.00,WUHU216WMR968SP,2013-03-20 19:35:00,
2013-03-20 12:40:00,66.0,49.0,30.13,WSW,245,4.5,6.3,54,0.00,,,0.00,WUHU216WMR968SP,2013-03-20 19:40:00,
2013-03-20 12:45:00,66.0,49.0,30.13,SW,214,3.1,6.3,54,0.00,,,0.00,WUHU216WMR968SP,2013-03-20 19:45:00,
2013-03-20 12:50:00,66.4,49.3,30.13,NW,325,0.0,4.9,54,0.00,,,0.00,WUHU216WMR968SP,2013-03-20 19:50:00,
2013-03-20 12:55:00,66.9,49.8,30.13,SSW,203,3.1,8.1,54,0.00,,,0.00,WUHU216WMR968SP,2013-03-20 19:55:00,
2013-03-20 13:00:00,67.5,50.4,30.13,WSW,240,5.4,8.1,54,0.00,,,0.00,WUHU216WMR968SP,2013-03-20 20:00:00,
2013-03-20 13:05:00,67.6,49.9,30.10,SW,229,2.7,6.3,53,0.00,,,0.00,WUHU216WMR968SP,2013-03-20 20:05:00,
2013-03-20 13:10:00,67.6,49.9,30.10,SW,222,4.5,8.3,53,0.00,,,0.00,WUHU216WMR968SP,2013-03-20 20:10:00,
2013-03-20 13:15:00,67.6,49.9,30.10,SW,220,0.0,8.3,53,0.00,,,0.00,WUHU216WMR968SP,2013-03-20 20:15:00,
2013-03-20 13:20:00,67.6,49.9,30.10,SW,220,2.7,6.3,53,0.00,,,0.00,WUHU216WMR968SP,2013-03-20 20:20:00,
2013-03-20 13:25:00,68.0,50.3,30.10,SW,233,3.6,6.3,53,0.00,,,0.00,WUHU216WMR968SP,2013-03-20 20:25:00,
2013-03-20 13:30:00,68.7,51.0,30.10,ESE,120,0.0,5.4,53,0.00,,,0.00,WUHU216WMR968SP,2013-03-20 20:30:00,
2013-03-20 13:35:00,69.3,51.5,30.10,SW,216,4.0,6.3,53,0.00,,,0.00,WUHU216WMR968SP,2013-03-20 20:35:00,
2013-03-20 13:40:00,69.8,51.5,30.10,WSW,253,4.0,6.3,52,0.00,,,0.00,WUHU216WMR968SP,2013-03-20 20:40:00,
2013-03-20 13:45:00,69.6,51.8,30.10,SSW,192,3.1,5.8,53,0.00,,,0.00,WUHU216WMR968SP,2013-03-20 20:45:00,
2013-03-20 13:50:00,70.2,51.8,30.07,ESE,118,2.7,5.8,52,0.00,,,0.00,WUHU216WMR968SP,2013-03-20 20:50:00,
2013-03-20 13:55:00,70.0,51.7,30.07,West,260,0.0,5.4,52,0.00,,,0.00,WUHU216WMR968SP,2013-03-20 20:55:00,
2013-03-20 14:00:00,70.2,51.8,30.07,SSW,212,4.5,5.8,52,0.00,,,0.00,WUHU216WMR968SP,2013-03-20 21:00:00,
2013-03-20 14:05:00,70.3,51.9,30.07,SW,229,0.0,5.8,52,0.00,,,0.00,WUHU216WMR968SP,2013-03-20 21:05:00,
2013-03-20 14:10:00,70.5,52.1,30.07,WSW,247,3.6,5.8,52,0.00,,,0.00,WUHU216WMR968SP,2013-03-20 21:10:00,
2013-03-20 14:15:00,70.3,51.9,30.07,SSW,202,4.5,6.3,52,0.00,,,0.00,WUHU216WMR968SP,2013-03-20 21:15:00,
2013-03-20 14:20:00,70.2,51.8,30.07,NNW,345,2.7,6.3,52,0.00,,,0.00,WUHU216WMR968SP,2013-03-20 21:20:00,
2013-03-20 14:25:00,70.2,51.8,30.07,SE,129,0.0,5.4,52,0.00,,,0.00,WUHU216WMR968SP,2013-03-20 21:25:00,
2013-03-20 14:30:00,70.2,50.2,30.07,NW,313,3.1,5.8,49,0.00,,,0.00,WUHU216WMR968SP,2013-03-20 21:30:00,
2013-03-20 14:35:00,70.2,50.2,30.07,WNW,303,3.1,5.8,49,0.00,,,0.00,WUHU216WMR968SP,2013-03-20 21:35:00,
2013-03-20 14:40:00,70.3,51.9,30.07,SW,233,3.1,6.3,52,0.00,,,0.00,WUHU216WMR968SP,2013-03-20 21:40:00,
2013-03-20 14:45:00,70.5,50.5,30.07,SW,232,3.6,6.3,49,0.00,,,0.00,WUHU216WMR968SP,2013-03-20 21:45:00,
2013-03-20 14:50:00,70.7,52.3,30.07,SW,223,5.8,7.2,52,0.00,,,0.00,WUHU216WMR968SP,2013-03-20 21:50:00,
2013-03-20 14:55:00,71.4,53.0,30.07,SSW,197,5.4,7.2,52,0.00,,,0.00,WUHU216WMR968SP,2013-03-20 21:55:00,
2013-03-20 15:00:00,71.6,52.6,30.07,WSW,238,2.2,6.3,51,0.00,,,0.00,WUHU216WMR968SP,2013-03-20 22:00:00,
2013-03-20 15:05:00,71.2,52.8,30.04,WSW,243,6.7,8.7,52,0.00,,,0.00,WUHU216WMR968SP,2013-03-20 22:05:00,
2013-03-20 15:10:00,71.1,52.7,30.04,WSW,240,4.5,8.7,52,0.00,,,0.00,WUHU216WMR968SP,2013-03-20 22:10:00,
2013-03-20 15:15:00,70.7,52.3,30.04,SW,233,4.0,6.3,52,0.00,,,0.00,WUHU216WMR968SP,2013-03-20 22:15:00,
2013-03-20 15:20:00,70.3,51.9,30.04,WSW,255,4.5,6.3,52,0.00,,,0.00,WUHU216WMR968SP,2013-03-20 22:20:00,
2013-03-20 15:25:00,70.3,51.9,30.04,SW,221,5.8,6.3,52,0.00,,,0.00,WUHU216WMR968SP,2013-03-20 22:25:00,
2013-03-20 15:30:00,70.5,52.1,30.04,WSW,251,3.1,8.3,52,0.00,,,0.00,WUHU216WMR968SP,2013-03-20 22:30:00,
2013-03-20 15:35:00,70.7,52.3,30.04,West,259,5.8,8.3,52,0.00,,,0.00,WUHU216WMR968SP,2013-03-20 22:35:00,
2013-03-20 15:40:00,70.5,52.1,30.04,SW,224,6.3,10.5,52,0.00,,,0.00,WUHU216WMR968SP,2013-03-20 22:40:00,
2013-03-20 15:45:00,70.3,51.9,30.04,WSW,241,5.4,10.5,52,0.00,,,0.00,WUHU216WMR968SP,2013-03-20 22:45:00,
2013-03-20 15:50:00,70.3,51.9,30.04,West,276,4.5,7.6,52,0.00,,,0.00,WUHU216WMR968SP,2013-03-20 22:50:00,
2013-03-20 15:55:00,70.5,52.1,30.04,SW,223,4.5,8.3,52,0.00,,,0.00,WUHU216WMR968SP,2013-03-20 22:55:00,
2013-03-20 16:00:00,70.5,52.1,30.04,SW,222,4.0,8.3,52,0.00,,,0.00,WUHU216WMR968SP,2013-03-20 23:00:00,
2013-03-20 16:05:00,70.3,50.3,30.04,SW,218,3.6,8.3,49,0.00,,,0.00,WUHU216WMR968SP,2013-03-20 23:05:00,
2013-03-20 16:10:00,70.3,50.3,30.04,WSW,238,4.5,8.3,49,0.00,,,0.00,WUHU216WMR968SP,2013-03-20 23:10:00,
2013-03-20 16:15:00,70.2,50.2,30.04,SW,236,5.8,8.7,49,0.00,,,0.00,WUHU216WMR968SP,2013-03-20 23:15:00,
2013-03-20 16:20:00,70.2,50.2,30.04,WSW,244,5.4,8.7,49,0.00,,,0.00,WUHU216WMR968SP,2013-03-20 23:20:00,
2013-03-20 16:25:00,70.0,50.0,30.04,WSW,247,4.5,6.7,49,0.00,,,0.00,WUHU216WMR968SP,2013-03-20 23:25:00,
2013-03-20 16:30:00,69.8,49.8,30.04,WSW,246,4.9,10.5,49,0.00,,,0.00,WUHU216WMR968SP,2013-03-20 23:30:00,
2013-03-20 16:35:00,69.6,50.2,30.04,SW,214,4.0,10.5,50,0.00,,,0.00,WUHU216WMR968SP,2013-03-20 23:35:00,
2013-03-20 16:40:00,69.4,50.0,30.04,WSW,237,5.4,7.6,50,0.00,,,0.00,WUHU216WMR968SP,2013-03-20 23:40:00,
2013-03-20 16:45:00,69.4,50.0,30.04,SW,229,7.6,10.1,50,0.00,,,0.00,WUHU216WMR968SP,2013-03-20 23:45:00,
2013-03-20 16:50:00,69.3,48.2,30.04,WSW,241,4.0,10.1,47,0.00,,,0.00,WUHU216WMR968SP,2013-03-20 23:50:00,
2013-03-20 16:55:00,69.1,48.0,30.04,WSW,249,4.0,8.1,47,0.00,,,0.00,WUHU216WMR968SP,2013-03-20 23:55:00,
2013-03-20 17:00:00,68.5,47.5,30.04,WNW,298,6.7,12.3,47,0.00,,,0.00,WUHU216WMR968SP,2013-03-21 00:00:00,
2013-03-20 17:05:00,68.4,47.4,30.04,West,274,6.3,12.3,47,0.00,,,0.00,WUHU216WMR968SP,2013-03-21 00:05:00,
2013-03-20 17:10:00,68.4,47.4,30.04,SW,236,0.0,8.3,47,0.00,,,0.00,WUHU216WMR968SP,2013-03-21 00:10:00,
2013-03-20 17:15:00,68.5,47.5,30.04,WSW,240,3.6,10.5,47,0.00,,,0.00,WUHU216WMR968SP,2013-03-21 00:15:00,
2013-03-20 17:20:00,68.4,47.4,30.04,SW,234,4.0,10.5,47,0.00,,,0.00,WUHU216WMR968SP,2013-03-21 00:20:00,
2013-03-20 17:25:00,68.2,48.9,30.04,WSW,250,0.0,8.1,50,0.00,,,0.00,WUHU216WMR968SP,2013-03-21 00:25:00,
2013-03-20 17:30:00,68.0,48.7,30.04,SSW,204,0.0,8.1,50,0.00,,,0.00,WUHU216WMR968SP,2013-03-21 00:30:00,
2013-03-20 17:35:00,68.0,48.7,30.04,WSW,244,0.0,0.0,50,0.00,,,0.00,WUHU216WMR968SP,2013-03-21 00:35:00,
2013-03-20 17:40:00,68.0,48.7,30.04,WSW,241,0.0,0.0,50,0.00,,,0.00,WUHU216WMR968SP,2013-03-21 00:40:00,
2013-03-20 17:45:00,68.0,48.7,30.04,SW,232,0.0,0.0,50,0.00,,,0.00,WUHU216WMR968SP,2013-03-21 00:45:00,
2013-03-20 17:50:00,67.8,48.5,30.04,SW,234,0.0,0.0,50,0.00,,,0.00,WUHU216WMR968SP,2013-03-21 00:50:00,
2013-03-20 17:55:00,67.5,48.2,30.04,SW,225,0.0,0.0,50,0.00,,,0.00,WUHU216WMR968SP,2013-03-21 00:55:00,
2013-03-20 18:00:00,67.3,48.1,30.04,SW,218,0.0,0.0,50,0.00,,,0.00,WUHU216WMR968SP,2013-03-21 01:00:00,
2013-03-20 18:05:00,67.1,47.9,30.04,WSW,237,0.0,0.0,50,0.00,,,0.00,WUHU216WMR968SP,2013-03-21 01:05:00,
2013-03-20 18:10:00,66.9,47.7,30.04,SSW,211,0.0,0.0,50,0.00,,,0.00,WUHU216WMR968SP,2013-03-21 01:10:00,
2013-03-20 18:15:00,66.7,47.5,30.04,SW,219,0.0,0.0,50,0.00,,,0.00,WUHU216WMR968SP,2013-03-21 01:15:00,
2013-03-20 18:20:00,66.7,47.5,30.04,SW,216,0.0,0.0,50,0.00,,,0.00,WUHU216WMR968SP,2013-03-21 01:20:00,
2013-03-20 18:25:00,66.6,47.4,30.04,SSW,208,0.0,0.0,50,0.00,,,0.00,WUHU216WMR968SP,2013-03-21 01:25:00,
2013-03-20 18:30:00,66.4,47.2,30.04,West,267,0.0,0.0,50,0.00,,,0.00,WUHU216WMR968SP,2013-03-21 01:30:00,
2013-03-20 18:35:00,66.0,46.9,30.01,WSW,249,0.0,0.0,50,0.00,,,0.00,WUHU216WMR968SP,2013-03-21 01:35:00,
2013-03-20 18:40:00,65.8,46.7,30.01,WSW,250,0.0,0.0,50,0.00,,,0.00,WUHU216WMR968SP,2013-03-21 01:40:00,
2013-03-20 18:45:00,65.5,46.4,30.01,SW,236,0.0,0.0,50,0.00,,,0.00,WUHU216WMR968SP,2013-03-21 01:45:00,
2013-03-20 18:50:00,65.3,46.2,30.04,SW,222,0.0,0.0,50,0.00,,,0.00,WUHU216WMR968SP,2013-03-21 01:50:00,
2013-03-20 18:55:00,65.1,46.0,30.04,SW,223,0.0,0.0,50,0.00,,,0.00,WUHU216WMR968SP,2013-03-21 01:55:00,
2013-03-20 19:00:00,64.9,45.8,30.04,SW,232,0.0,0.0,50,0.00,,,0.00,WUHU216WMR968SP,2013-03-21 02:00:00,
2013-03-20 19:05:00,64.8,45.8,30.04,SSW,197,0.0,0.0,50,0.00,,,0.00,WUHU216WMR968SP,2013-03-21 02:05:00,
2013-03-20 19:10:00,64.6,45.6,30.04,SW,233,0.0,0.0,50,0.00,,,0.00,WUHU216WMR968SP,2013-03-21 02:10:00,
2013-03-20 19:15:00,64.2,45.7,30.04,SW,233,0.0,0.0,51,0.00,,,0.00,WUHU216WMR968SP,2013-03-21 02:15:00,
2013-03-20 19:20:00,64.0,46.6,30.04,SW,225,0.0,0.0,53,0.00,,,0.00,WUHU216WMR968SP,2013-03-21 02:20:00,
2013-03-20 19:25:00,63.9,46.5,30.04,SW,218,0.0,0.0,53,0.00,,,0.00,WUHU216WMR968SP,2013-03-21 02:25:00,
2013-03-20 19:30:00,63.9,46.5,30.04,SSW,202,0.0,0.0,53,0.00,,,0.00,WUHU216WMR968SP,2013-03-21 02:30:00,
2013-03-20 19:35:00,63.7,46.3,30.04,SSE,149,0.0,0.0,53,0.00,,,0.00,WUHU216WMR968SP,2013-03-21 02:35:00,
2013-03-20 19:40:00,63.9,47.0,30.04,ESE,105,0.0,0.0,54,0.00,,,0.00,WUHU216WMR968SP,2013-03-21 02:40:00,
2013-03-20 19:45:00,63.9,47.0,30.04,SE,133,0.0,0.0,54,0.00,,,0.00,WUHU216WMR968SP,2013-03-21 02:45:00,
2013-03-20 19:50:00,63.7,46.8,30.04,SE,131,0.0,0.0,54,0.00,,,0.00,WUHU216WMR968SP,2013-03-21 02:50:00,
2013-03-20 19:55:00,63.5,46.6,30.04,South,191,0.0,0.0,54,0.00,,,0.00,WUHU216WMR968SP,2013-03-21 02:55:00,
2013-03-20 20:00:00,63.5,46.6,30.04,SE,131,0.0,0.0,54,0.00,,,0.00,WUHU216WMR968SP,2013-03-21 03:00:00,
2013-03-20 20:05:00,63.3,46.5,30.04,SSW,206,0.0,0.0,54,0.00,,,0.00,WUHU216WMR968SP,2013-03-21 03:05:00,
2013-03-20 20:10:00,63.0,46.2,30.04,ESE,120,0.0,0.0,54,0.00,,,0.00,WUHU216WMR968SP,2013-03-21 03:10:00,
2013-03-20 20:15:00,62.8,46.0,30.04,South,190,0.0,0.0,54,0.00,,,0.00,WUHU216WMR968SP,2013-03-21 03:15:00,
2013-03-20 20:20:00,62.6,45.8,30.04,SSW,199,0.0,2.7,54,0.00,,,0.00,WUHU216WMR968SP,2013-03-21 03:20:00,
2013-03-20 20:25:00,62.4,46.1,30.04,SSW,195,0.0,3.6,55,0.00,,,0.00,WUHU216WMR968SP,2013-03-21 03:25:00,
2013-03-20 20:30:00,62.1,45.8,30.04,SE,129,0.0,3.6,55,0.00,,,0.00,WUHU216WMR968SP,2013-03-21 03:30:00,
2013-03-20 20:35:00,61.9,45.6,30.04,SSW,208,0.0,3.6,55,0.00,,,0.00,WUHU216WMR968SP,2013-03-21 03:35:00,
2013-03-20 20:40:00,61.7,45.5,30.04,SSW,208,0.0,3.6,55,0.00,,,0.00,WUHU216WMR968SP,2013-03-21 03:40:00,
2013-03-20 20:45:00,61.7,45.5,30.04,SSW,204,0.0,0.0,55,0.00,,,0.00,WUHU216WMR968SP,2013-03-21 03:45:00,
2013-03-20 20:51:00,61.9,45.6,30.04,South,170,0.0,0.0,55,0.00,,,0.00,WUHU216WMR968SP,2013-03-21 03:51:00,
2013-03-20 20:56:00,61.5,45.3,30.04,SE,134,0.0,2.7,55,0.00,,,0.00,WUHU216WMR968SP,2013-03-21 03:56:00,
2013-03-20 21:01:00,61.3,45.1,30.04,SE,134,0.0,2.7,55,0.00,,,0.00,WUHU216WMR968SP,2013-03-21 04:01:00,
2013-03-20 21:06:00,61.0,44.8,30.04,SE,134,0.0,0.0,55,0.00,,,0.00,WUHU216WMR968SP,2013-03-21 04:06:00,
2013-03-20 21:11:00,60.8,44.6,30.04,SE,134,0.0,0.0,55,0.00,,,0.00,WUHU216WMR968SP,2013-03-21 04:11:00,
2013-03-20 21:16:00,60.8,45.1,30.04,SE,134,0.0,0.0,56,0.00,,,0.00,WUHU216WMR968SP,2013-03-21 04:16:00,
2013-03-20 21:21:00,60.6,44.9,30.04,SE,133,0.0,0.0,56,0.00,,,0.00,WUHU216WMR968SP,2013-03-21 04:21:00,
2013-03-20 21:26:00,60.4,44.7,30.04,SE,134,0.0,0.0,56,0.00,,,0.00,WUHU216WMR968SP,2013-03-21 04:26:00,
2013-03-20 21:31:00,60.3,44.6,30.04,SE,134,0.0,0.0,56,0.00,,,0.00,WUHU216WMR968SP,2013-03-21 04:31:00,
2013-03-20 21:36:00,59.9,44.3,30.01,SE,134,0.0,0.0,56,0.00,,,0.00,WUHU216WMR968SP,2013-03-21 04:36:00,
2013-03-20 21:41:00,59.7,44.1,30.01,SE,134,0.0,0.0,56,0.00,,,0.00,WUHU216WMR968SP,2013-03-21 04:41:00,
2013-03-20 21:46:00,59.5,44.4,30.01,SE,134,0.0,0.0,57,0.00,,,0.00,WUHU216WMR968SP,2013-03-21 04:46:00,
2013-03-20 21:51:00,59.4,44.3,30.04,SE,134,0.0,0.0,57,0.00,,,0.00,WUHU216WMR968SP,2013-03-21 04:51:00,
2013-03-20 21:56:00,59.4,44.3,30.04,SE,134,0.0,0.0,57,0.00,,,0.00,WUHU216WMR968SP,2013-03-21 04:56:00,
2013-03-20 22:01:00,59.2,44.1,30.04,SSW,199,0.0,0.0,57,0.00,,,0.00,WUHU216WMR968SP,2013-03-21 05:01:00,
2013-03-20 22:06:00,59.2,44.1,30.04,SSW,199,0.0,0.0,57,0.00,,,0.00,WUHU216WMR968SP,2013-03-21 05:06:00,
2013-03-20 22:11:00,59.4,44.3,30.04,SSW,199,0.0,0.0,57,0.00,,,0.00,WUHU216WMR968SP,2013-03-21 05:11:00,
2013-03-20 22:16:00,59.4,44.3,30.04,WSW,250,0.0,4.0,57,0.00,,,0.00,WUHU216WMR968SP,2013-03-21 05:16:00,
2013-03-20 22:21:00,59.2,44.5,30.04,SSW,212,0.0,4.0,58,0.00,,,0.00,WUHU216WMR968SP,2013-03-21 05:21:00,
2013-03-20 22:26:00,59.2,44.5,30.04,SSW,199,0.0,0.0,58,0.00,,,0.00,WUHU216WMR968SP,2013-03-21 05:26:00,
2013-03-20 22:31:00,59.2,44.5,30.04,SSW,199,0.0,0.0,58,0.00,,,0.00,WUHU216WMR968SP,2013-03-21 05:31:00,
2013-03-20 22:36:00,59.2,45.0,30.04,SSW,197,2.7,3.1,59,0.00,,,0.00,WUHU216WMR968SP,2013-03-21 05:36:00,
2013-03-20 22:41:00,59.2,45.0,30.04,SSE,164,0.0,3.1,59,0.00,,,0.00,WUHU216WMR968SP,2013-03-21 05:41:00,
2013-03-20 22:46:00,59.0,44.8,30.04,SSE,164,0.0,2.7,59,0.00,,,0.00,WUHU216WMR968SP,2013-03-21 05:46:00,
2013-03-20 22:51:00,59.0,44.8,30.07,SSE,167,0.0,0.0,59,0.00,,,0.00,WUHU216WMR968SP,2013-03-21 05:51:00,
2013-03-20 22:56:00,58.8,45.1,30.07,SSE,167,0.0,0.0,60,0.00,,,0.00,WUHU216WMR968SP,2013-03-21 05:56:00,
2013-03-20 23:02:00,58.6,44.9,30.07,SSE,167,0.0,0.0,60,0.00,,,0.00,WUHU216WMR968SP,2013-03-21 06:02:00,
2013-03-20 23:07:00,58.3,45.0,30.04,SSE,166,0.0,0.0,61,0.00,,,0.00,WUHU216WMR968SP,2013-03-21 06:07:00,
2013-03-20 23:12:00,58.1,44.8,30.04,SE,145,0.0,0.0,61,0.00,,,0.00,WUHU216WMR968SP,2013-03-21 06:12:00,
2013-03-20 23:17:00,57.9,44.7,30.04,SE,133,0.0,0.0,61,0.00,,,0.00,WUHU216WMR968SP,2013-03-21 06:17:00,
2013-03-20 23:22:00,57.6,44.8,30.04,East,95,0.0,2.7,62,0.00,,,0.00,WUHU216WMR968SP,2013-03-21 06:22:00,
2013-03-20 23:27:00,57.4,45.0,30.04,East,88,0.0,2.7,63,0.00,,,0.00,WUHU216WMR968SP,2013-03-21 06:27:00,
2013-03-20 23:32:00,57.2,44.8,30.04,East,88,0.0,2.2,63,0.00,,,0.00,WUHU216WMR968SP,2013-03-21 06:32:00,
2013-03-20 23:37:00,57.2,45.3,30.04,East,88,0.0,0.0,64,0.00,,,0.00,WUHU216WMR968SP,2013-03-21 06:37:00,
2013-03-20 23:42:00,57.0,45.5,30.04,East,88,0.0,0.0,65,0.00,,,0.00,WUHU216WMR968SP,2013-03-21 06:42:00,
2013-03-20 23:47:00,56.8,45.3,30.04,East,88,0.0,0.0,65,0.00,,,0.00,WUHU216WMR968SP,2013-03-21 06:47:00,
2013-03-20 23:52:00,56.8,45.3,30.04,East,88,0.0,0.0,65,0.00,,,0.00,WUHU216WMR968SP,2013-03-21 06:52:00,
2013-03-20 23:57:00,56.8,45.3,30.04,East,88,0.0,0.0,65,0.00,,,0.00,WUHU216WMR968SP,2013-03-21 06:57:00,